• In Deutschland
  • Länderverzeichnis
  • Für 7 Tage
  • Wassertemperatur
  • Satellitenkarten
  • Wetterkarte
  • Widgets
  • user-avatar
    Anmelden

    Stündliche Wetter Dongyuan

    Heute, 21 Juli, Samstag

    Zeit Temperatur Niederschläge Wind Luftdruck Luftfeuchtigkeit
    00:00 +27°C° 0 mm 3 m/S 751 mmHg 87%
    01:00 +27°C° 0 mm 3 m/S 751 mmHg 88%
    02:00 +26°C° 0 mm 3 m/S 750 mmHg 88%
    03:00 +26°C° 0 mm 3 m/S 750 mmHg 88%
    04:00 +26°C° 0 mm 3 m/S 750 mmHg 88%
    05:00 +26°C° 0 mm 3 m/S 750 mmHg 88%
    06:00 +28°C° 0 mm 3 m/S 750 mmHg 82%
    07:00 +29°C° 0 mm 2 m/S 750 mmHg 75%
    08:00 +31°C° 0 mm 2 m/S 750 mmHg 67%
    09:00 +34°C° 0 mm 2 m/S 750 mmHg 61%
    10:00 +36°C° 0 mm 2 m/S 749 mmHg 54%
    11:00 +37°C° 0 mm 2 m/S 749 mmHg 47%
    12:00 +38°C° 0 mm 3 m/S 749 mmHg 47%
    13:00 +38°C° 0 mm 3 m/S 748 mmHg 46%
    14:00 +38°C° 0 mm 3 m/S 748 mmHg 44%
    15:00 +37°C° 0 mm 3 m/S 748 mmHg 52%
    16:00 +36°C° 0 mm 3 m/S 748 mmHg 60%
    17:00 +34°C° 0 mm 3 m/S 748 mmHg 67%
    18:00 +33°C° 0,1 mm 3 m/S 748 mmHg 72%
    19:00 +31°C° 0,1 mm 2 m/S 748 mmHg 76%
    20:00 +29°C° 0 mm 1 m/S 749 mmHg 82%
    21:00 +29°C° 0,2 mm 1 m/S 749 mmHg 83%
    22:00 +29°C° 0,2 mm 1 m/S 749 mmHg 84%
    23:00 +28°C° 0,2 mm 1 m/S 749 mmHg 85%

    Morgen, 22 Juli, Sonntag

    Zeit Temperatur Niederschläge Wind Luftdruck Luftfeuchtigkeit
    00:00 +28°C° 0 mm 1 m/S 749 mmHg 86%
    01:00 +28°C° 0 mm 1 m/S 749 mmHg 87%
    02:00 +28°C° 0 mm 2 m/S 748 mmHg 87%
    03:00 +28°C° 0 mm 1 m/S 748 mmHg 87%
    04:00 +27°C° 0 mm 1 m/S 748 mmHg 88%
    05:00 +27°C° 0 mm 1 m/S 748 mmHg 88%
    06:00 +29°C° 0 mm 1 m/S 748 mmHg 83%
    07:00 +30°C° 0 mm 1 m/S 748 mmHg 78%
    08:00 +31°C° 0 mm 1 m/S 748 mmHg 74%
    09:00 +34°C° 0,1 mm 2 m/S 748 mmHg 68%
    10:00 +35°C° 0,1 mm 2 m/S 748 mmHg 62%
    11:00 +37°C° 0,1 mm 2 m/S 748 mmHg 56%
    12:00 +37°C° 0,4 mm 3 m/S 748 mmHg 57%
    13:00 +37°C° 0,4 mm 4 m/S 748 mmHg 57%
    14:00 +37°C° 0,4 mm 4 m/S 747 mmHg 58%
    15:00 +37°C° 0,4 mm 4 m/S 747 mmHg 61%
    16:00 +36°C° 0,4 mm 4 m/S 747 mmHg 64%
    17:00 +36°C° 0,4 mm 4 m/S 747 mmHg 67%
    18:00 +34°C° 0,3 mm 4 m/S 747 mmHg 72%
    19:00 +33°C° 0,3 mm 3 m/S 748 mmHg 77%
    20:00 +30°C° 0,3 mm 3 m/S 748 mmHg 81%
    21:00 +30°C° 0,8 mm 3 m/S 748 mmHg 83%
    22:00 +30°C° 0,8 mm 3 m/S 749 mmHg 84%
    23:00 +29°C° 0,8 mm 3 m/S 749 mmHg 86%

    übermorgen, 23 Juli, Montag

    Zeit Temperatur Niederschläge Wind Luftdruck Luftfeuchtigkeit
    00:00 +29°C° 0,3 mm 3 m/S 749 mmHg 86%
    01:00 +29°C° 0,3 mm 2 m/S 748 mmHg 87%
    02:00 +29°C° 0,3 mm 2 m/S 748 mmHg 87%
    03:00 +29°C° 0,3 mm 2 m/S 748 mmHg 87%
    04:00 +28°C° 0,3 mm 2 m/S 748 mmHg 88%
    05:00 +28°C° 0,3 mm 2 m/S 748 mmHg 88%
    06:00 +29°C° 0,2 mm 2 m/S 749 mmHg 83%
    07:00 +31°C° 0,2 mm 2 m/S 749 mmHg 78%
    08:00 +32°C° 0,2 mm 2 m/S 749 mmHg 74%
    09:00 +34°C° 0,6 mm 2 m/S 749 mmHg 69%
    10:00 +35°C° 0,6 mm 3 m/S 749 mmHg 65%
    11:00 +37°C° 0,6 mm 3 m/S 749 mmHg 61%
    12:00 +37°C° 0,8 mm 4 m/S 749 mmHg 62%
    13:00 +37°C° 0,8 mm 5 m/S 748 mmHg 64%
    14:00 +38°C° 0,8 mm 6 m/S 748 mmHg 65%
    15:00 +36°C° 1 mm 6 m/S 748 mmHg 68%
    16:00 +35°C° 1 mm 6 m/S 748 mmHg 71%
    17:00 +35°C° 1 mm 6 m/S 748 mmHg 74%
    18:00 +33°C° 0,3 mm 5 m/S 748 mmHg 77%
    19:00 +32°C° 0,3 mm 5 m/S 748 mmHg 80%
    20:00 +30°C° 0,3 mm 5 m/S 749 mmHg 83%
    21:00 +30°C° 0,8 mm 4 m/S 749 mmHg 85%
    22:00 +29°C° 0,8 mm 4 m/S 750 mmHg 86%
    23:00 +29°C° 0,8 mm 4 m/S 750 mmHg 87%

    24 Juli, Dienstag

    Zeit Temperatur Niederschläge Wind Luftdruck Luftfeuchtigkeit
    00:00 +29°C° 0,7 mm 4 m/S 750 mmHg 88%
    01:00 +29°C° 0,7 mm 4 m/S 750 mmHg 89%
    02:00 +29°C° 0,7 mm 4 m/S 750 mmHg 89%
    03:00 +28°C° 0,4 mm 3 m/S 750 mmHg 90%
    04:00 +28°C° 0,4 mm 3 m/S 750 mmHg 91%
    05:00 +28°C° 0,4 mm 3 m/S 750 mmHg 91%
    06:00 +29°C° 0,2 mm 3 m/S 750 mmHg 89%
    07:00 +30°C° 0,2 mm 3 m/S 751 mmHg 87%
    08:00 +30°C° 0,2 mm 2 m/S 751 mmHg 84%
    09:00 +31°C° 0,1 mm 3 m/S 751 mmHg 79%
    10:00 +33°C° 0,1 mm 3 m/S 751 mmHg 74%
    11:00 +34°C° 0,1 mm 3 m/S 751 mmHg 69%
    12:00 +35°C° 0,1 mm 4 m/S 751 mmHg 68%
    13:00 +35°C° 0,1 mm 4 m/S 750 mmHg 67%
    14:00 +35°C° 0,1 mm 4 m/S 750 mmHg 66%
    15:00 +35°C° 0,1 mm 4 m/S 750 mmHg 68%
    16:00 +35°C° 0,1 mm 4 m/S 750 mmHg 69%
    17:00 +34°C° 0,1 mm 4 m/S 750 mmHg 71%
    18:00 +33°C° 0 mm 3 m/S 750 mmHg 75%
    19:00 +31°C° 0 mm 3 m/S 750 mmHg 80%
    20:00 +30°C° 0 mm 2 m/S 751 mmHg 84%
    21:00 +29°C° 0,1 mm 2 m/S 751 mmHg 86%
    22:00 +29°C° 0,1 mm 2 m/S 751 mmHg 87%
    23:00 +29°C° 0,1 mm 2 m/S 752 mmHg 89%

    25 Juli, Mittwoch

    Zeit Temperatur Niederschläge Wind Luftdruck Luftfeuchtigkeit
    00:00 +28°C° 0 mm 2 m/S 752 mmHg 90%
    01:00 +28°C° 0 mm 1 m/S 751 mmHg 91%
    02:00 +28°C° 0 mm 1 m/S 751 mmHg 92%
    03:00 +28°C° 0,1 mm 1 m/S 751 mmHg 92%
    04:00 +27°C° 0,1 mm 1 m/S 751 mmHg 93%
    05:00 +27°C° 0,1 mm 1 m/S 751 mmHg 93%
    06:00 +28°C° 0 mm 1 m/S 751 mmHg 88%
    07:00 +28°C° 0 mm 0 m/S 752 mmHg 84%
    08:00 +29°C° 0 mm 0 m/S 752 mmHg 79%
    09:00 +32°C° 0 mm 1 m/S 752 mmHg 73%
    10:00 +34°C° 0 mm 1 m/S 752 mmHg 66%
    11:00 +36°C° 0 mm 2 m/S 752 mmHg 60%
    12:00 +36°C° 0,1 mm 3 m/S 751 mmHg 61%
    13:00 +36°C° 0,1 mm 3 m/S 751 mmHg 61%
    14:00 +36°C° 0,1 mm 4 m/S 750 mmHg 62%
    15:00 +36°C° 0,1 mm 4 m/S 750 mmHg 64%
    16:00 +35°C° 0,1 mm 3 m/S 750 mmHg 66%
    17:00 +35°C° 0,1 mm 3 m/S 750 mmHg 67%
    18:00 +32°C° 0 mm 2 m/S 750 mmHg 72%
    19:00 +31°C° 0 mm 2 m/S 751 mmHg 76%
    20:00 +30°C° 0 mm 2 m/S 751 mmHg 81%
    21:00 +29°C° 0 mm 1 m/S 752 mmHg 83%
    22:00 +29°C° 0 mm 1 m/S 752 mmHg 85%
    23:00 +29°C° 0 mm 1 m/S 752 mmHg 86%

    26 Juli, Donnerstag

    Zeit Temperatur Niederschläge Wind Luftdruck Luftfeuchtigkeit
    00:00 +28°C° 0 mm 1 m/S 752 mmHg 87%
    01:00 +28°C° 0 mm 1 m/S 752 mmHg 88%
    02:00 +26°C° 0 mm 0 m/S 751 mmHg 89%
    03:00 +26°C° 0 mm 0 m/S 751 mmHg 89%
    04:00 +26°C° 0 mm 0 m/S 751 mmHg 90%
    05:00 +25°C° 0 mm 0 m/S 751 mmHg 91%
    06:00 +27°C° 0 mm 0 m/S 752 mmHg 86%
    07:00 +28°C° 0 mm 0 m/S 752 mmHg 81%
    08:00 +31°C° 0 mm 1 m/S 753 mmHg 76%
    09:00 +32°C° 0 mm 1 m/S 753 mmHg 70%
    10:00 +34°C° 0 mm 1 m/S 753 mmHg 64%
    11:00 +36°C° 0 mm 2 m/S 752 mmHg 58%
    12:00 +36°C° 0 mm 2 m/S 752 mmHg 58%
    13:00 +37°C° 0 mm 3 m/S 751 mmHg 58%
    14:00 +37°C° 0 mm 3 m/S 751 mmHg 59%
    15:00 +36°C° 0,2 mm 3 m/S 751 mmHg 62%
    16:00 +36°C° 0,2 mm 3 m/S 751 mmHg 64%
    17:00 +35°C° 0,2 mm 3 m/S 751 mmHg 67%
    18:00 +34°C° 0,2 mm 2 m/S 751 mmHg 72%
    19:00 +31°C° 0,2 mm 2 m/S 751 mmHg 77%
    20:00 +30°C° 0,2 mm 2 m/S 751 mmHg 82%
    21:00 +30°C° 0,1 mm 1 m/S 752 mmHg 83%
    22:00 +29°C° 0,1 mm 1 m/S 752 mmHg 85%
    23:00 +29°C° 0,1 mm 1 m/S 752 mmHg 87%
    Mehr zeigen